Showing default

COSMOS 2541, 44552

Orbit data source: Space-Track

COSMOS 2541, 44552 is a payload satellite owned by VVKO VKS (CIS) in HEO that was launched on Thu, 26 Sep 2019 UTC via a SOYUZ-2-1B launch vehicle from the Plesetsk Missile And Space Complex (PKMTR). Payload-class satellites include a variety of spacecraft equipped with specific instruments for various scientific and technological missions. These include communications satellites like Starlink; space stations such as the ISS; scientific satellites like the Hubble; Earth observation satellites from companies like Planet Labs, Umbra, and HawkEye 360; GPS; miniature CubeSats for education and research; and military/defense satellites.

Loading next visibility...
Identifier
44552, 2019-065A
Orbit
HEO
Country
Flag of CISCIS
Related business
Manufacturer
RKKE/KOMET
Mission
Operational Defense Early Warn
Bus & Motor
14F142 EKS, Unknown motor
Mass
2,550 kg wet, ~2,000 kg dry
Launch date (UTC)
2019-09-26 (7 years ago)
Launch vehicle
SOYUZ-2-1B
Launch site
Plesetsk Missile And Space Complex (PKMTR)
Object type
Payload
Rocket body
Debris
Shape & HBR
Box + 2 Pan, Unknown HBR
Radar Cross Section
14.304 m², Large (>1 m²)

Expand to show TLE details & history
Last TLE update: 1 day ago

TLE from 1 day ago
0 COSMOS 2541
1 44552U 19065A   26172.25899363  .00000196  00000-0  00000+0 0  9999
2 44552  62.7135 156.5824 6492537 272.1092  20.3252  2.00603221 49302
Epoch: 2026-06-21T06:12Z
TLE epoch observation values (Epoch: 2026-06-21T06:12:57.049Z)
Latitude
-0°
Longitude
153.86628°
Altitude
8,637.747 km
Speed
6.171 km/s
True Right ascension
10h 26m 15s
True Declination
0° 00' 00"
Sunlit
Object was in daylight at epoch
Visualization orbit readout
Latitude
Unknown
Longitude
Unknown
Altitude
Unknown
Speed
Unknown
Apparent Right ascension
Unknown
Apparent Declination
Unknown
Sunlit
N/A
Visualization observer readout
Local Sidereal Time
21:24:21
Azimuth
Unknown
Elevation
Unknown
Doppler factor
Unknown
Orbital elements
Apogee altitude
37,419.726 km
Perigee altitude
2,936.342 km
Semi-major axis
26,556.171 km
Eccentricity
0.64925
Inclination
62.7135°
RAAN
156.5824°
Arg. of periapsis
272.1092°
True anomaly
87.91408°
Mean anomaly
20.3252°
Eccentric anomaly
47.9466°
Mean motion
0.50153 °/min
Orbital period
717.81 mins
BSTAR
0
Loading maneuver chart data...
Computing Atmospheric mass density...
Loading historical data...
Loading historical data...
Loading historical data...
Loading historical data...
Loading historical data...
Loading historical data...
Loading historical data...
Other satellites on launch #65 in the year 2019 (2019-09-26 UTC)

Documentation

Showing up to 5 results
|